{"data":{"norad_id":56960,"intl_designator":"2023-084AE","name":"ORBITER SN3","alt_names":[],"object_type":"PAYLOAD","status":"ACTIVE","operator":null,"country":"US","launch_date":"2023-06-12","launch_site_code":"AFWTR","launch_vehicle":null,"mission":null,"orbit_class":"UNKNOWN","rcs_meters":null,"size_class":null,"mass_kg":null,"dimensions":null,"purposes":[],"wikipedia_slug":null,"has_3d_model":false,"image_url":null,"decayed_at":null,"tle_current":{"epoch":"2026-05-25T04:09:53.353152Z","epoch_age_seconds":60370,"freshness":"FRESH","line1":"1 56960U 23084AE  26145.17353418  .00007888  00000+0  24020-3 0  9994","line2":"2 56960  97.6238 285.2332 0008963  60.9436 299.2703 15.34245473163967","mean_motion":15.34245473,"eccentricity":0.0008963,"inclination_deg":97.6238,"raan_deg":285.2332,"arg_perigee_deg":60.9436,"mean_anomaly_deg":299.2703,"bstar":0.0002402,"rev_number":16396,"period_min":93.85721029271,"perigee_km":457.03070876407,"apogee_km":469.2944223653,"semimajor_km":6841.2995655647,"source":"CELESTRAK","updated_at":"2026-05-25T13:37:59.788202Z"}}}